Flag for U.S.A. Weather past 2 weeks in Avalon (Santa Catalina Island), California, U.S.A.

Now
67 °F

Sunny.


Feels Like: 67 °F
Forecast: 57 / 69 °F
Wind: 9 mph from West

Location: Catalina Airport

Current Time: Apr 19, 2015 at 3:16:35 PM

Latest Report: Apr 19, 2015 at 1:51 PM


Visibility: 10 mi

Pressure: 29.90 "Hg

Humidity: 49%

Dew point: 47 °F

Location of Avalon (Santa Catalina Island)Location

Historic Weather in Avalon (Santa Catalina Island) — Graph

°F

Avalon (Santa Catalina Island) temperature yesterday

Maximum temperature yesterday: 70 °F (at 12:51 PM)
Minimum temperature yesterday: 59 °F (at 8:51 PM)
Average temperature yesterday: 65 °F

Past Weeks' High & Low Weather Summary

 TemperatureHumidityPressure
High74 °F (Apr 16, 1:51 PM)100% (Apr 5, 2:51 AM)30.13 "Hg (Apr 5, 2:51 AM)
Low48 °F (Apr 7, 3:51 AM)9% (Apr 16, 1:51 PM)29.84 "Hg (Apr 5, 2:51 AM)
Average58 °F59%29.97 "Hg
* Reported Apr 4 1:51 PM — Apr 19 1:51 PM, Avalon (Santa Catalina Island), Weather by CustomWeather, © 2015

Note: Actual official high and low records may vary slightly from our data, if they occured in-between our weather recording intervals... More about our weather records

Advertising

Avalon (Santa Catalina Island) weather history for previous 24 hours

 ConditionsComfort  
Time TempWeatherWind HumidityBarometerVisibility
1:51 PM
Sun, Apr 19
67 °FSunny.9 mph49%29.90 "Hg10 mi
12:51 PM64 °FSunny.8 mph65%29.93 "Hg10 mi
11:51 AM64 °FSunny.8 mph65%29.94 "Hg10 mi
10:51 AM63 °FSunny.3 mph70%29.94 "Hg10 mi
9:51 AM61 °FSunny.No wind70%29.95 "Hg10 mi
8:51 AM62 °FSunny.3 mph62%29.95 "Hg10 mi
7:51 AM61 °FSunny.No wind54%29.96 "Hg10 mi
6:51 AM60 °FClear.3 mph30%29.94 "Hg10 mi
5:51 AM60 °FClear.5 mph31%29.92 "Hg10 mi
4:51 AM59 °FClear.No wind39%29.92 "Hg10 mi
3:51 AM60 °FClear.No wind38%29.91 "Hg10 mi
2:51 AM59 °FClear.5 mph44%29.92 "Hg10 mi
1:51 AM60 °FClear.6 mph32%29.93 "Hg10 mi
12:51 AM60 °FClear.9 mph33%29.94 "Hg10 mi
11:51 PM
Sat, Apr 18
62 °FClear.5 mph37%29.95 "Hg10 mi
10:51 PM64 °FClear.6 mph28%29.94 "Hg10 mi
9:51 PM63 °FClear.13 mph31%29.94 "Hg10 mi
8:51 PM59 °FClear.10 mph51%29.94 "Hg10 mi
7:51 PM61 °FSunny.12 mph41%29.93 "Hg10 mi
6:51 PM61 °FSunny.9 mph65%29.93 "Hg10 mi
5:51 PM64 °FSunny.10 mph45%29.93 "Hg10 mi
4:51 PM65 °FSunny.9 mph51%29.93 "Hg10 mi
3:51 PM67 °FSunny.12 mph45%29.93 "Hg10 mi
Weather by CustomWeather, © 2015

See weather overviewHow to use our weather pages